Regional Weather Roundup
Issued by NWS

Home | Current Version | Previous Version | Graphics & Text | Print | Product List | Glossary On
Versions: 1 2 3 4 5 6 7 8 9 10 11 12 13 14 15 16 17 18 19 20 21 22 23 24 25 26 27 28 29 30 31 32 33 34 35 36 37 38 39 40 41 42 43 44 45 46 47 48 49 50
000
ASUS43 KLSX 271310
RWRMO

WEATHER SUMMARY FOR MISSOURI
NATIONAL WEATHER SERVICE SPRINGFIELD MO
700 AM CST MON FEB 27 2017

NOTE: "FAIR" INDICATES FEW OR NO CLOUDS BELOW 12,000 FEET WITH NO
       SIGNIFICANT WEATHER AND/OR OBSTRUCTIONS TO VISIBILITY.
       CURRENT SKY AND/OR WEATHER CONDITIONS ARE NOT AVAILABLE FOR
       CHILLICOTHE AND FARMINGTON.

MOZ001>031-035>038-043-044-053-054-271400-
...NORTHERN AND WESTERN MISSOURI...

CITY           SKY/WX    TMP DP  RH WIND       PRES   REMARKS
KANSAS CTY INT PTCLDY    27  27 100 SE8       30.02R FOG     WCI  19
KANSAS C DTWN  FOG       28  27  96 NE5       30.04R VSB 1/2 WCI  23
LEE`S SUMMIT   CLEAR     32  32 100 SE8       30.03S WCI  25
ST JOSEPH      FOG       25  22  88 CALM      30.02F VSB 1/4
CHILLICOTHE      N/A     26  26 100 CALM      30.07R
KIRKSVILLE     FOG       25  22  88 SE3       30.06S VSB<1/4

$$
MOZ066>068-077>081-088>096-101>105-271400-
...SOUTHWEST MISSOURI...

CITY           SKY/WX    TMP DP  RH WIND       PRES   REMARKS
SPRINGFIELD    CLEAR     34  26  72 SE8       30.03R WCI  27
JOPLIN         CLEAR     33  28  81 CALM      30.02S
BRANSON        PTCLDY    36  30  80 SE6       30.05R

$$
MOZ032>034-039>042-045>050-055>058-069>072-271400-
...CENTRAL MISSOURI...

CITY           SKY/WX    TMP DP  RH WIND       PRES   REMARKS
COLUMBIA       CLEAR     34  33  96 SE9       30.07R WCI  27
JEFFERSON CITY FOG       27  27 100 CALM      30.09R VSB 1/4
ROLLA          CLEAR     35  31  85 SE8       30.05S WCI  29
SEDALIA        FOG       27  26  96 SE3       30.07R VSB<1/4
WHITEMAN AFB   FOG       27  27 100 SE5       30.05R VSB 1/4 WCI  21
WARRENSBURG    FOG       23  21  93 CALM      30.05S VSB 1/4
OSAGE BEACH    CLEAR     28  26  92 CALM      30.07R

$$
MOZ051-052-059>065-271400-
...EAST CENTRAL MISSOURI...

CITY           SKY/WX    TMP DP  RH WIND       PRES   REMARKS
ST LOUIS INTL  PTCLDY    38  33  82 E7        30.11S
SPIRIT OF STL  CLEAR     29  29 100 CALM      30.10S
ST CHARLES     CLEAR     34  33  96 E7        30.11S WCI  28

$$
MOZ072>076-082>087-097>100-106>115-271400-
...SOUTH CENTRAL AND SOUTHEAST MISSOURI...

CITY           SKY/WX    TMP DP  RH WIND       PRES   REMARKS
CAPE GIRARDEAU PTCLDY    42  38  85 E6        30.12R
FARMINGTON     CLEAR     37  34  89 CALM      30.11R
POPLAR BLUFF   PTCLDY    41  40  96 CALM      30.11R
WEST PLAINS    CLEAR     31  26  82 CALM      30.08R

$$




USA.gov is the U.S. government's official web portal to all federal, state and local government web resources and services.